Tracking 30986 objects as of 9-Jul-2025
HD Live streaming from Space Station
objects crossing your sky now

STARLINK-31365

Track STARLINK-31365 now!
10-day predictions
STARLINK-31365 is classified as:


NORAD ID: 58973
Int'l Code: 2024-031J
Perigee: 481.7 km
Apogee: 483.1 km
Inclination: 53.2 °
Period: 94.1 minutes
Semi major axis: 6853 km
RCS: Unknown
Launch date: February 15, 2023
Source: United States (US)
Launch site: AIR FORCE WESTERN TEST RANGE (AFWTR)
Your satellite tracking list
Your tracking list is empty




NASA's NSSDC Master Catalog

Two Line Element Set (TLE):
1 58973U 24031J   25190.59087970 -.00004837  00000-0 -15132-3 0  9993
2 58973  53.1624 345.8674 0001033  96.2148 263.8970 15.30197499 79312
Source of the keplerian elements: AFSPC